Cleveland, OH

4:43 AM EDT on May 28, 2017 (GMT -0400)
Cleveland-Hopkins International

Weather History for KCLE - January, 2002

Change the Weather History Date:

Tuesday, January 1, 2002

  Actual Average Record
Temperature  
Mean Temperature 20 °F 29 °F  
Max Temperature 24 °F 35 °F 69 °F (1876)
Min Temperature 15 °F 22 °F -4 °F (1968)
Degree Days  
Heating Degree Days 46 36  
Month to date heating degree days 36  
Since 1 July heating degree days 2143  
Cooling Degree Days 0 0  
Month to date cooling degree days 0  
Year to date cooling degree days 0  
Moisture  
Dew Point 13 °F    
Average Humidity 73    
Maximum Humidity 80    
Minimum Humidity 68    
Precipitation  
Precipitation 0.02 in 0.10 in 0.81 in (1979)
Month to date precipitation 0.10  
Year to date precipitation 0.10  
Snow  
Snow 0.00 in 0.60 in - ()
Month to date snowfall 0.6  
Since 1 July snowfall 19.2  
Snow Depth 1.00 in    
Sea Level Pressure  
Sea Level Pressure 30.29 in    
Wind  
Wind Speed 9 mph (SW)    
Max Wind Speed 10 mph    
Max Gust Speed -    
Visibility 8 miles    
Events Snow    
T = Trace of Precipitation, MM = Missing Value Source: NWS Daily Summary

Daily Weather History Graph

Daily Weather History Graph

Search for Another Location

Airport or City:

Trip Planner

Search our weather history database for the weather conditions in past years. The results will help you decide how hot, cold, wet, or windy it might be!

Date:

Astronomy

Jan. 01, 2002 Rise Set
Actual Time 7:53 AM EST 5:08 PM EST
Civil Twilight 7:22 AM EST 5:39 PM EST
Nautical Twilight 6:47 AM EST 6:14 PM EST
Astronomical Twilight 6:14 AM EST 6:48 PM EST
Moon 7:47 PM EST (1/1) 9:56 AM EST (1/1)
Length of Visible Light 10h 17m
Length of Day
9h 14m
Waning Gibbous, 93% of the Moon is Illuminated
Jan 1
Waning Gibbous
Jan 5
Last Quarter
Jan 13
New
Jan 21
First Quarter
Jan 28
Full

Hourly Weather History & Observations

Time (EST) Temp. Windchill Dew Point Humidity Pressure Visibility Wind Dir Wind Speed Gust Speed Precip Events Conditions
12:25 AM 15.8 °F 4.2 °F 6.8 °F 68% 30.14 in 10.0 mi SW 9.2 mph - N/A   Overcast
12:51 AM 15.1 °F 4.2 °F 8.1 °F 74% 30.18 in 9.0 mi SW 8.1 mph - 0.00 in Snow Light Snow
1:51 AM 16.0 °F 4.4 °F 8.1 °F 71% 30.18 in 9.0 mi WSW 9.2 mph - 0.00 in Snow Light Snow
2:51 AM 16.0 °F 4.4 °F 8.1 °F 71% 30.19 in 9.0 mi SW 9.2 mph - 0.00 in Snow Light Snow
3:51 AM 16.0 °F 3.6 °F 9.0 °F 74% 30.19 in 8.0 mi WSW 10.4 mph - 0.00 in Snow Light Snow
4:51 AM 17.1 °F 5.0 °F 9.0 °F 71% 30.20 in 7.0 mi SW 10.4 mph - 0.00 in Snow Light Snow
5:51 AM 17.1 °F 6.6 °F 10.0 °F 74% 30.21 in 8.0 mi SW 8.1 mph - 0.00 in Snow Light Snow
6:51 AM 17.1 °F 5.0 °F 10.0 °F 74% 30.22 in 8.0 mi SW 10.4 mph - 0.00 in Snow Light Snow
7:02 AM 17.6 °F 6.4 °F 10.4 °F 73% 30.18 in 7.0 mi SW 9.2 mph - 0.00 in Snow Light Snow
7:51 AM 17.1 °F 5.0 °F 10.0 °F 74% 30.25 in 7.0 mi SW 10.4 mph - 0.00 in Snow Light Snow
8:11 AM 17.6 °F 5.7 °F 10.4 °F 73% 30.22 in 6.0 mi SW 10.4 mph - 0.00 in Snow Light Snow
8:51 AM 17.1 °F 5.0 °F 10.0 °F 74% 30.28 in 5.0 mi SW 10.4 mph - 0.00 in Snow Light Snow
9:51 AM 18.0 °F 6.1 °F 12.0 °F 78% 30.30 in 2.5 mi SSW 10.4 mph - 0.00 in Snow Light Snow
10:09 AM 17.6 °F 7.3 °F 10.4 °F 73% 30.27 in 4.0 mi SW 8.1 mph - 0.00 in Snow Light Snow
10:22 AM 17.6 °F 6.4 °F 12.2 °F 79% 30.27 in 5.0 mi SSW 9.2 mph - 0.00 in Snow Light Snow
10:51 AM 19.9 °F 9.3 °F 12.9 °F 74% 30.32 in 8.0 mi SSW 9.2 mph - 0.00 in Snow Light Snow
11:51 AM 21.0 °F 9.9 °F 14.0 °F 74% 30.32 in 10.0 mi WSW 10.4 mph - 0.00 in Snow Light Snow
12:51 PM 23.0 °F 13.1 °F 15.1 °F 72% 30.30 in 10.0 mi SW 9.2 mph - 0.00 in Snow Light Snow
1:51 PM 24.1 °F 16.0 °F 15.1 °F 69% 30.31 in 10.0 mi SW 6.9 mph - 0.00 in Snow Light Snow
2:36 PM 24.8 °F 15.3 °F 15.8 °F 69% 30.28 in 10.0 mi SW 9.2 mph - 0.00 in Snow Light Snow
2:51 PM 24.1 °F 15.2 °F 16.0 °F 71% 30.33 in 10.0 mi SW 8.1 mph - 0.00 in Snow Light Snow
3:51 PM 24.1 °F 15.2 °F 15.1 °F 69% 30.35 in 10.0 mi WSW 8.1 mph - 0.00 in Snow Light Snow
4:17 PM 24.8 °F 15.3 °F 15.8 °F 69% 30.32 in 10.0 mi SW 9.2 mph - 0.00 in Snow Light Snow
4:51 PM 24.1 °F 17.0 °F 15.1 °F 69% 30.37 in 10.0 mi SW 5.8 mph - 0.00 in Snow Light Snow
5:51 PM 24.1 °F 16.0 °F 15.1 °F 69% 30.37 in 10.0 mi SSW 6.9 mph - 0.00 in Snow Light Snow
6:04 PM 23.0 °F 14.7 °F 15.8 °F 74% 30.33 in 10.0 mi SW 6.9 mph - 0.00 in Snow Light Snow
6:51 PM 23.0 °F 14.7 °F 16.0 °F 74% 30.38 in 10.0 mi SW 6.9 mph - 0.00 in Snow Light Snow
7:51 PM 23.0 °F 15.8 °F 17.1 °F 78% 30.39 in 10.0 mi SW 5.8 mph - 0.00 in Snow Light Snow
8:51 PM 23.0 °F 13.9 °F 16.0 °F 74% 30.41 in 10.0 mi SW 8.1 mph - 0.00 in Snow Light Snow
9:51 PM 23.0 °F 13.9 °F 16.0 °F 74% 30.41 in 10.0 mi SW 8.1 mph - 0.00 in   Mostly Cloudy
10:51 PM 21.9 °F 13.4 °F 16.0 °F 78% 30.41 in 9.0 mi SW 6.9 mph - 0.00 in Snow Light Snow
11:04 PM 23.0 °F 14.7 °F 17.6 °F 80% 30.37 in 6.0 mi SW 6.9 mph - 0.00 in Snow Light Snow
11:51 PM 23.0 °F 15.8 °F 17.1 °F 78% 30.41 in 6.0 mi SSW 5.8 mph - 0.00 in Snow Light Snow